Regional Weather Roundup
Issued by NWS

Home | Current Version | Previous Version | Graphics & Text | Print | Product List | Glossary Off
Versions: 1 2 3 4 5 6 7 8 9 10 11 12 13 14 15 16 17 18 19 20 21 22 23 24 25 26 27 28 29 30 31 32 33 34 35 36 37 38 39 40 41 42 43 44 45 46 47 48 49 50

000
ASUS43 KMPX 281701
RWRMN
WEATHER ROUNDUP FOR MINNESOTA
NATIONAL WEATHER SERVICE TWIN CITIES/CHANHASSEN MN
1200 PM CDT SUN MAY 28 2017


NOTE: "FAIR" INDICATES FEW OR NO CLOUDS BELOW 12,000 FEET WITH NO
SIGNIFICANT WEATHER AND/OR OBSTRUCTIONS TO VISIBILITY. N/A MEANS
CURRENT SKY AND/OR WEATHER CONDITIONS ARE NOT AVAILABLE.

MNZ060>063-068>070-281800-
   Twin Cities Metro

CITY           SKY/WX    TMP DP  RH WIND       PRES   REMARKS
TWIN CITIES    MOSUNNY   68  46  45 NW21G29   29.75S
ST PAUL        MOSUNNY   67  48  50 W23G29    29.74F
CRYSTAL        MOSUNNY   67  46  47 W13G22    29.73F
BLAINE         PTSUNNY   66  48  52 W14G23    29.74S
LAKEVILLE      SUNNY     66  48  52 W17       29.75F
EDEN PRAIRIE   MOSUNNY   69  47  45 W16G28    29.75R
SOUTH ST PAUL  SUNNY     66  45  45 W18G26    29.74F
LAKE ELMO      FAIR      64  50  59 W13G22    29.75S
$$
MNZ001>005-007-008-013>017-022>024-027-028-281800-
   Northwest Minnesota

CITY           SKY/WX    TMP DP  RH WIND       PRES   REMARKS
BEMIDJI        PTSUNNY   58  48  70 W17G24    29.71R
HALLOCK        CLOUDY    61  48  63 NW20      29.72S
ROSEAU         CLOUDY    54  48  82 W12       29.69S HAZE
WARROAD        MOSUNNY   59  50  72 W9G20     29.68S
THIEF RVR FALL CLOUDY    55  50  82 W18G24    29.74F
CROOKSTON      MOSUNNY   55  54  94 NW15G21   29.76S
FOSSTON        LGT RAIN  50  48  93 W9        29.75S
DETROIT LAKES  CLOUDY    59  50  72 NW18G25   29.77S
MOORHEAD       MOSUNNY   66  46  48 NW24      29.77S
PARK RAPIDS    LGT RAIN  61  45  55 NW21G29   29.72R
MAHNOMEN       CLOUDY    58  50  75 NW15G21   29.75S
$$
MNZ006-009>011-018-025>026-281800-
   North Central Minnesota

CITY           SKY/WX    TMP DP  RH WIND       PRES   REMARKS
BAUDETTE       CLOUDY    60  49  66 NW16      29.66S
FLAG ISLAND    PTSUNNY   55  48  76 NW12      29.65S
INTL FALLS     CLOUDY    58  51  78 SW6       29.64F
WASKISH        CLOUDY    61  50  67 W16       29.68R
BIG FORK       LGT RAIN  55  48  76 SW3       29.67F
LONGVILLE      MOSUNNY   63  52  67 N7        29.69F
GRAND RAPIDS   LGT RAIN  53  49  86 W7        29.70F
CRANE LAKE     CLOUDY    63  48  59 CALM      29.63F THUNDER
ORR            CLOUDY    57  48  72 NW10      29.62R
COOK           PTSUNNY   61  50  67 W14G21    29.63F
WALKER         TSTM      58  49  73 W14G20    29.70R
$$
MNZ012-019>021-037-281800-
   Northeast Minnesota

CITY           SKY/WX    TMP DP  RH WIND       PRES   REMARKS
DULUTH         CLOUDY    59  52  77 SW8       29.64F
ELY            CLOUDY    57  52  82 CALM      29.63F
HIBBING        PTSUNNY   60  48  64 W15G23    29.65S
EVELETH        CLOUDY    58  50  75 S5        29.65S
DULUTH HARBOR  TSTM      54  50  87 S7        29.67R
TWO HARBORS    CLOUDY    61  55  82 SE5       29.63S
SILVER BAY     CLOUDY    57  54  88 S9        29.65R
GRAND MARAIS     N/A     48  42  80 W5        29.66R
G MARAIS ARPRT MOSUNNY   64  43  45 SW9G16    29.66S
$$
MNZ029>031-032-039>041-046>048-054>057-064-281800-
   West Central Minnesota

CITY           SKY/WX    TMP DP  RH WIND       PRES   REMARKS
FERGUS FALLS   MOSUNNY   64  48  55 N15G28    29.75F
WHEATON        MOSUNNY   66  45  45 NW21G28   29.82S
MORRIS         MOSUNNY   66  46  48 NW20G25   29.78S
ALEXANDRIA     MOSUNNY   66  48  52 W16G24    29.78R
ELBOW LAKE     PTSUNNY   63  48  58 NW14G22   29.78F
WADENA         PTSUNNY   63  48  59 W15G23    29.74S
GLENWOOD       SUNNY     66  46  48 W18G26    29.78R
APPLETON       MOSUNNY   70  43  37 NW24G33   29.80R
BENSON         MOSUNNY   70  45  40 N18G28    29.80S
ORTONVILLE     MOSUNNY   68  46  45 W15G22    29.81S
MADISON        MOSUNNY   72  46  40 NW21G26   29.82R
WILLMAR        FAIR      68  48  49 W18G25    29.80S
$$
MNZ033>034-036-042>043-049>051-058-059-281800-
   Central Minnesota

CITY           SKY/WX    TMP DP  RH WIND       PRES   REMARKS
ST CLOUD       PTSUNNY   64  48  56 W14G25    29.73F
SAUK CENTRE    CLOUDY    64  46  51 NW14G22   29.76S
PAYNESVILLE    SUNNY     67  43  41 W17G24    29.77F
AITKIN         CLOUDY    57  48  72 W8        29.70R
PINE RIVER     PTSUNNY   61  48  63 NW8       29.74F
BRAINERD       PTSUNNY   62  48  60 W8        29.72F
STAPLES        PTSUNNY   63  45  51 NW18G25   29.73S
LONG PRAIRIE   PTSUNNY   64  46  52 SW15      29.75S
LITTLE FALLS   CLOUDY    63  43  48 NW12G18   29.73S
LITCHFIELD     MOSUNNY   68  48  49 W16G24    29.78S
BUFFALO        MOSUNNY   66  46  47 W10G24    29.76F
MAPLE LAKE     MOSUNNY   68  50  53 NW13G18   29.76S
HUTCHINSON     MOSUNNY   69  47  45 NW17G26   29.78F
$$
MNZ037-044-045-052-053-281800-
   East Central Minnesota

CITY           SKY/WX    TMP DP  RH WIND       PRES   REMARKS
PRINCETON      PTSUNNY   68  48  49 W14G20    29.73S
MORA           PTSUNNY   59  46  63 NW13G20   29.73S
CAMBRIDGE      PTSUNNY   66  50  55 W13       29.71S
RUSH CITY      PTSUNNY   63  49  60 W7G16     29.72S
MOOSE LAKE     PTSUNNY   61  46  59 W13       29.67S
HINCKLEY       PTSUNNY   61  50  67 W12G20    29.71S
CLOQUET        MOSUNNY   61  46  59 W13G22    29.67S
MCGREGOR       CLOUDY    55  46  71 W12       29.71S
$$
MNZ071>073-080-081-089-090-097-098-281800-
   Southwest Minnesota

CITY           SKY/WX    TMP DP  RH WIND       PRES   REMARKS
MONTEVIDEO     PTSUNNY   70  45  40 N16G25    29.80S
CANBY          PTSUNNY   67  46  46 W18G25    29.85R
MARSHALL       MOSUNNY   70  41  34 NW22G32   29.82F
REDWOOD FALLS  MOSUNNY   70  42  36 NW16G26   29.80F
OLIVIA         PTSUNNY   68  43  40 NW17G28   29.79S
PIPESTONE      MOSUNNY   68  36  30 NW17G23   29.87S
WINDOM         SUNNY     70  41  35 NW15G25   29.84S
WORTHINGTON    MOSUNNY   68  44  42 W15G21    29.86S
JACKSON        SUNNY     70  41  35 W8G21     29.85S
TRACY          PTSUNNY   69  45  41 NW14G24   29.84S
SLAYTON        MOSUNNY   66  42  41 NW16G24   29.86S
$$
MNZ065>067-074>077-082>085-091>093-281800-
   South Central Minnesota

CITY           SKY/WX    TMP DP  RH WIND       PRES   REMARKS
MANKATO        MOSUNNY   68  44  42 NW17G29   29.79F
NEW ULM        MOSUNNY   70  43  37 NW16G29   29.80S
ST JAMES       SUNNY     70  43  37 W13G26    29.83S
FAIRMONT       SUNNY     69  43  38 NW13G22   29.83S
GLENCOE        MOSUNNY   70  49  46 W15G25    29.77S
FARIBAULT      MOSUNNY   68  46  45 W13G24    29.78S
OWATONNA       SUNNY     68  45  42 NW16G25   29.78F
WASECA         SUNNY     70  45  40 NW24      29.80S
ALBERT LEA     SUNNY     70  45  40 W12G21    29.80S
$$
MNZ078>079-086>088-094>096-281800-
   Southeast Minnesota

CITY           SKY/WX    TMP DP  RH WIND       PRES   REMARKS
ROCHESTER      SUNNY     68  48  48 NW22      29.78S
RED WING       SUNNY     68  39  34 W17       29.73S
STANTON        SUNNY     68  47  46 W22G29    29.75S
DODGE CENTER   SUNNY     66  45  45 W20G26    29.78S
WINONA         SUNNY     70  45  40 W14G21    29.73F
AUSTIN         SUNNY     68  46  45 W13G23    29.79S
PRESTON        SUNNY     67  44  43 NW20G26   29.77F
$$
ABBREVIATIONS USED IN REMARKS
   TC - TEMPERATURES IN CELSIUS
  WCI - WIND CHILL INDEX
   HX - HEAT INDEX
  VSB - VISIBILITY
$$




USA.gov is the U.S. government's official web portal to all federal, state and local government web resources and services.